Location: Newark
(51.3318°N, 0.0053°E)
Time: 09:07:19
(UTC+00:00)

Sep Motor Cover - Pass Details

Date: 16 December 2022
Orbit: 663 x 834 km, 71.0° (Epoch: 05 February)

Event Time Altitude Azimuth Distance (km) Brightness Sun altitude
Rises 19:22:19 0° 331° (NNW) 3,316 10.2 -31.4°
Reaches altitude 10° 19:25:18 10° 347° (NNW) 2,408 9.2 -31.9°
Enters shadow 19:25:55 12° 352° (N) 2,248 9.0 -32.0°
